Weather History for KCNM - January, 2013

Change the Weather History Date:

Saturday, January 26, 2013

  Actual Average Record
Temperature  
Mean Temperature 54 °F -  
Max Temperature 62 °F 60 °F 81 °F (1975)
Min Temperature 46 °F 31 °F 19 °F (2002)
Degree Days  
Heating Degree Days 11    
Growing Degree Days 4 (Base 50)    
Moisture  
Dew Point 38 °F    
Average Humidity 56    
Maximum Humidity 68    
Minimum Humidity 41    
Precipitation  
Precipitation 0.00 in - - ()
Sea Level Pressure  
Sea Level Pressure 29.95 in    
Wind  
Wind Speed 6 mph (SSE)    
Max Wind Speed 10 mph    
Max Gust Speed -    
Visibility 10 miles    
Events      
Averages and records for this station are not official NWS values.
T = Trace of Precipitation, MM = Missing Value Source: NWS Daily Summary

Daily Weather History Graph

Daily Weather History Graph

Search for Another Location

Airport or City:

Trip Planner

Search our weather history database for the weather conditions in past years. The results will help you decide how hot, cold, wet, or windy it might be!

Date:

Astronomy

Jan. 26, 2013 Rise Set
Actual Time 6:54 AM MST 5:25 PM MST
Civil Twilight 6:28 AM MST 5:51 PM MST
Nautical Twilight 5:58 AM MST 6:20 PM MST
Astronomical Twilight 5:29 AM MST 6:49 PM MST
Moon 5:19 PM MST (1/26) 6:15 AM MST (1/26)
Length of Visible Light 11h 22m
Length of Day
10h 30m
Full, 100% of the Moon is Illuminated
Jan 26
Full
Jan 26
Full
Feb 3
Last Quarter
Feb 10
New
Feb 17
First Quarter

Hourly Weather History & Observations

Time (MST) Temp. Dew Point Humidity Pressure Visibility Wind Dir Wind Speed Gust Speed Precip Events Conditions
12:53 AM 51.1 °F 39.9 °F 66% 30.02 in 10.0 mi SSE 6.9 mph - N/A   Clear
1:53 AM 50.0 °F 37.9 °F 63% 30.01 in 10.0 mi SE 5.8 mph - N/A   Clear
2:53 AM 48.0 °F 37.9 °F 68% 30.00 in 10.0 mi SE 3.5 mph - N/A   Overcast
3:53 AM 48.9 °F 37.9 °F 66% 30.00 in 10.0 mi SE 3.5 mph - N/A   Overcast
4:53 AM 48.0 °F 37.9 °F 68% 30.00 in 10.0 mi SE 4.6 mph - N/A   Clear
5:53 AM 48.0 °F 37.0 °F 66% 30.01 in 10.0 mi SSE 6.9 mph - N/A   Clear
6:53 AM 46.9 °F 37.0 °F 68% 30.03 in 10.0 mi SSE 3.5 mph - N/A   Clear
7:53 AM 48.9 °F 36.0 °F 61% 30.01 in 10.0 mi South 9.2 mph - N/A   Clear
8:53 AM 51.1 °F 35.1 °F 54% 30.02 in 10.0 mi SSE 9.2 mph - N/A   Clear
9:53 AM 54.0 °F 36.0 °F 51% 30.00 in 10.0 mi SSE 9.2 mph - N/A   Scattered Clouds
10:53 AM 55.0 °F 36.0 °F 49% 30.01 in 10.0 mi SSE 10.4 mph - N/A   Mostly Cloudy
11:53 AM 57.9 °F 37.0 °F 46% 29.96 in 10.0 mi SE 9.2 mph - N/A   Overcast
12:53 PM 62.1 °F 37.9 °F 41% 29.92 in 10.0 mi South 6.9 mph - N/A   Scattered Clouds
1:53 PM 62.1 °F 37.9 °F 41% 29.90 in 10.0 mi SE 5.8 mph - N/A   Partly Cloudy
2:53 PM 62.1 °F 39.0 °F 43% 29.89 in 10.0 mi SE 6.9 mph - N/A   Overcast
3:53 PM 61.0 °F 39.0 °F 44% 29.87 in 10.0 mi SSE 6.9 mph - N/A   Clear
4:53 PM 60.1 °F 39.0 °F 46% 29.86 in 10.0 mi Calm Calm - N/A   Clear
5:53 PM 59.0 °F 39.9 °F 49% 29.88 in 10.0 mi SSE 6.9 mph - N/A   Overcast
6:53 PM 55.0 °F 39.9 °F 57% 29.89 in 10.0 mi Calm Calm - N/A   Mostly Cloudy
7:53 PM 57.0 °F 39.9 °F 53% 29.88 in 10.0 mi SSW 6.9 mph - N/A   Overcast
8:53 PM 55.9 °F 39.9 °F 55% 29.88 in 10.0 mi NW 4.6 mph - N/A   Mostly Cloudy
9:53 PM 53.1 °F 39.9 °F 61% 29.89 in 10.0 mi SSW 3.5 mph - N/A   Partly Cloudy
10:53 PM 52.0 °F 39.9 °F 63% 29.89 in 10.0 mi Variable 3.5 mph - N/A   Mostly Cloudy
11:53 PM 51.1 °F 39.9 °F 66% 29.89 in 10.0 mi Calm Calm - N/A   Mostly Cloudy